Weather in Orton

Russia / Kemerovo Oblast     53°12′16″N   88°37′15″E
temp.,
°C
wind,
m/s
gust,
m/s
humid.,
%
clouds,
%
prec.,
mm/h
press.,
hPa
HPBL,
m
14 may, fri
fri1401:00+7ne11825 0.3 101410
04:00+5ese11884 0.0 101410
07:00+8ssw017617 0.0 101582
10:00+15w125250 0.0 1014666
13:00+17nw564567 0.3 10142243
16:00+14nw575980 0.6 10151423
19:00+12nw38646 2.8 1018625
22:00+6w1183100 0.0 102211
15 may, sat
sat1501:00+5sw1185100 0.0 102510
04:00+3ssw0089100 0.0 102510
07:00+6sw0180100 0.0 102679
10:00+12wsw234423 0.0 10251030
13:00+15wnw354199 0.0 10241561
16:00+17wnw353913 0.0 10221736
19:00+15wnw2453100 0.0 1022475
22:00+9s117035 0.0 102211
16 may, sun
sun1601:00+7sse11825 0.0 102211
04:00+6sse118942 0.0 102113
07:00+8sse1283100 0.0 102062
10:00+10se1283100 0.3 1019130
13:00+18sw2750100 0.3 10161319
16:00+21w6948100 0.0 10142152
19:00+19wsw5115786 0.1 1012968
22:00+12sw228999 1.4 101219
17 may, mon
mon1701:00+10s1196100 2.9 101213
04:00+10ssw2399100 1.6 101284
07:00+11sw24100100 5.2 1012174
10:00+11wsw1399100 2.2 1012240
13:00+12sw2499100 4.5 1014284
16:00+12w2297100 0.9 1014259
19:00+14w148993 1.5 1015541
22:00+10nw1194100 0.2 101610
18 may, tue
tue1801:00+9wnw119573 0.2 101510
04:00+10sw249817 0.0 1014107
07:00+9s2397100 0.0 1013102
10:00+12ssw2993100 0.1 1011586
13:00+14wsw51387100 1.1 10091133
16:00+16w61485100 1.6 10071450
19:00+13w229132 4.3 100731
22:00+10wnw119710 0.9 100810